Worthington, MN

1:58 AM CDT on August 23, 2017 (GMT -0500)
Worthington Municipal

Weather History for KOTG - March, 2014

Change the Weather History Date:

Thursday, March 6, 2014

  Actual Average Record
Temperature  
Mean Temperature 24 °F -  
Max Temperature 32 °F 26 °F 69 °F (2017)
Min Temperature 17 °F 14 °F -12 °F (1984)
Degree Days  
Heating Degree Days 40    
Moisture  
Dew Point 19 °F    
Average Humidity 78    
Maximum Humidity 86    
Minimum Humidity 73    
Precipitation  
Precipitation 0.00 in - - ()
Sea Level Pressure  
Sea Level Pressure 29.95 in    
Wind  
Wind Speed 21 mph (South)    
Max Wind Speed 30 mph    
Max Gust Speed 38 mph    
Visibility 3 miles    
Events      
Averages and records for this station are not official NWS values.
T = Trace of Precipitation, MM = Missing Value Source: NWS Daily Summary

Daily Weather History Graph

Daily Weather History Graph

Search for Another Location

Airport or City:

Trip Planner

Search our weather history database for the weather conditions in past years. The results will help you decide how hot, cold, wet, or windy it might be!

Date:

Astronomy

Mar. 06, 2014 Rise Set
Actual Time 6:50 AM CST 6:17 PM CST
Civil Twilight 6:21 AM CST 6:46 PM CST
Nautical Twilight 5:48 AM CST 7:19 PM CST
Astronomical Twilight 5:15 AM CST 7:52 PM CST
Moon 9:48 AM CST (3/6) No Moon Set
Length of Visible Light 12h 24m
Length of Day
11h 27m
Waxing Crescent, 32% of the Moon is Illuminated
Mar 6
Waxing Crescent
Mar 8
First Quarter
Mar 16
Full
Mar 23
Last Quarter
Mar 30
New

Hourly Weather History & Observations

Time (CST) Temp. Windchill Dew Point Humidity Pressure Visibility Wind Dir Wind Speed Gust Speed Precip Events Conditions
12:15 AM 17.6 °F 1.3 °F 12.2 °F 79% 30.22 in 1.5 mi SSE 19.6 mph - N/A   Overcast
12:35 AM 17.6 °F 1.7 °F 12.2 °F 79% 30.22 in 1.8 mi South 18.4 mph 25.3 mph N/A   Overcast
12:55 AM 17.6 °F 1.7 °F 12.2 °F 79% 30.21 in 1.8 mi South 18.4 mph 28.8 mph N/A   Overcast
1:15 AM 17.6 °F 2.2 °F 12.2 °F 79% 30.20 in 1.8 mi South 17.3 mph 23.0 mph N/A   Overcast
1:35 AM 17.6 °F 0.9 °F 12.2 °F 79% 30.20 in 4.0 mi South 20.7 mph 24.2 mph N/A   Mostly Cloudy
1:55 AM 17.6 °F 1.7 °F 10.4 °F 73% 30.18 in 5.0 mi South 18.4 mph 24.2 mph N/A   Mostly Cloudy
2:15 AM 17.6 °F 1.7 °F 12.2 °F 79% 30.17 in 4.0 mi South 18.4 mph 23.0 mph N/A   Scattered Clouds
2:35 AM 17.6 °F 2.7 °F 12.2 °F 79% 30.17 in 4.0 mi South 16.1 mph 23.0 mph N/A   Scattered Clouds
2:55 AM 17.6 °F 2.2 °F 12.2 °F 79% 30.17 in 2.5 mi South 17.3 mph 23.0 mph N/A   Scattered Clouds
3:15 AM 17.6 °F 2.2 °F 12.2 °F 79% 30.16 in 4.0 mi South 17.3 mph - N/A   Partly Cloudy
3:35 AM 17.6 °F 2.2 °F 12.2 °F 79% 30.15 in 4.0 mi South 17.3 mph - N/A   Partly Cloudy
3:55 AM 17.6 °F 1.7 °F 12.2 °F 79% 30.14 in 3.0 mi South 18.4 mph 25.3 mph N/A   Partly Cloudy
4:15 AM 19.4 °F 3.6 °F 12.2 °F 74% 30.13 in 3.0 mi South 19.6 mph - N/A   Partly Cloudy
4:35 AM 19.4 °F 3.6 °F 12.2 °F 74% 30.12 in 2.5 mi South 19.6 mph - N/A   Scattered Clouds
4:55 AM 19.4 °F 5.0 °F 12.2 °F 74% 30.12 in 2.5 mi South 16.1 mph 24.2 mph N/A   Partly Cloudy
5:15 AM 19.4 °F 3.2 °F 14.0 °F 80% 30.11 in 2.5 mi South 20.7 mph 25.3 mph N/A   Partly Cloudy
5:35 AM 19.4 °F 4.5 °F 14.0 °F 80% 30.10 in 2.5 mi South 17.3 mph - N/A   Partly Cloudy
5:55 AM 19.4 °F 5.0 °F 14.0 °F 80% 30.11 in 2.5 mi South 16.1 mph - N/A   Partly Cloudy
6:15 AM 19.4 °F 4.5 °F 14.0 °F 80% 30.10 in 2.5 mi South 17.3 mph 21.9 mph N/A   Partly Cloudy
6:35 AM 19.4 °F 4.1 °F 14.0 °F 80% 30.08 in 1.8 mi South 18.4 mph 26.5 mph N/A   Scattered Clouds
6:55 AM 19.4 °F 4.1 °F 14.0 °F 80% 30.08 in 1.2 mi South 18.4 mph 23.0 mph N/A   Mostly Cloudy
7:15 AM 19.4 °F 3.2 °F 14.0 °F 80% 30.08 in 1.5 mi South 20.7 mph - N/A   Clear
7:35 AM 19.4 °F 2.8 °F 14.0 °F 80% 30.05 in 1.5 mi South 21.9 mph 26.5 mph N/A   Clear
7:55 AM 19.4 °F 2.8 °F 15.8 °F 86% 30.05 in 1.0 mi South 21.9 mph 27.6 mph N/A   Clear
8:15 AM 21.2 °F 4.9 °F 15.8 °F 80% 30.05 in 1.0 mi South 23.0 mph 27.6 mph N/A   Mostly Cloudy
8:35 AM 21.2 °F 4.9 °F 15.8 °F 80% 30.05 in 1.0 mi South 23.0 mph - N/A   Clear
8:55 AM 21.2 °F 4.9 °F 15.8 °F 80% 30.04 in 1.2 mi South 23.0 mph 29.9 mph N/A   Clear
9:15 AM 21.2 °F 5.2 °F 15.8 °F 80% 30.03 in 1.2 mi South 21.9 mph 26.5 mph N/A   Clear
9:35 AM 21.2 °F 4.5 °F 17.6 °F 86% 30.02 in 1.0 mi South 24.2 mph 28.8 mph N/A   Clear
9:55 AM 23.0 °F 6.3 °F 17.6 °F 80% 29.99 in 1.0 mi South 26.5 mph 33.4 mph N/A   Clear
10:15 AM 23.0 °F 6.3 °F 17.6 °F 80% 29.99 in 0.8 mi South 26.5 mph 34.5 mph N/A   Unknown
10:35 AM 24.8 °F 8.1 °F 17.6 °F 74% 29.98 in 0.8 mi South 28.8 mph 35.7 mph N/A   Unknown
10:55 AM 24.8 °F 8.1 °F 17.6 °F 74% 29.96 in 1.0 mi South 28.8 mph 35.7 mph N/A   Clear
11:15 AM 24.8 °F 8.1 °F 17.6 °F 74% 29.95 in 0.8 mi South 28.8 mph 35.7 mph N/A   Unknown
11:35 AM 26.6 °F 10.3 °F 19.4 °F 74% 29.95 in 1.0 mi South 29.9 mph 33.4 mph N/A   Clear
11:55 AM 26.6 °F 10.6 °F 19.4 °F 74% 29.94 in 1.0 mi South 28.8 mph 35.7 mph N/A   Clear
12:15 PM 26.6 °F 11.1 °F 19.4 °F 74% 29.94 in 1.0 mi South 26.5 mph 38.0 mph N/A   Clear
12:35 PM 28.4 °F 13.5 °F 21.2 °F 74% 29.92 in 1.5 mi South 26.5 mph 32.2 mph N/A   Clear
12:55 PM 26.6 °F 11.1 °F 21.2 °F 80% 29.92 in 1.5 mi South 26.5 mph 32.2 mph N/A   Clear
1:15 PM 28.4 °F 13.5 °F 21.2 °F 74% 29.89 in 1.8 mi South 26.5 mph 33.4 mph N/A   Clear
1:35 PM 28.4 °F 13.0 °F 21.2 °F 74% 29.87 in 1.5 mi South 28.8 mph 34.5 mph N/A   Clear
1:55 PM 28.4 °F 14.4 °F 21.2 °F 74% 29.86 in 2.0 mi South 23.0 mph 33.4 mph N/A   Clear
2:15 PM 30.2 °F 16.5 °F 23.0 °F 75% 29.85 in 2.5 mi South 24.2 mph 27.6 mph N/A   Clear
2:35 PM 30.2 °F 16.2 °F 23.0 °F 75% 29.84 in 2.5 mi South 25.3 mph 29.9 mph N/A   Clear
2:55 PM 30.2 °F 16.2 °F 24.8 °F 80% 29.83 in 3.0 mi South 25.3 mph 33.4 mph N/A   Clear
3:15 PM 30.2 °F 16.8 °F 23.0 °F 75% 29.84 in 3.0 mi South 23.0 mph - N/A   Clear
3:35 PM 30.2 °F 15.9 °F 24.8 °F 80% 29.82 in 3.0 mi South 26.5 mph 31.1 mph N/A   Partly Cloudy
3:55 PM 30.2 °F 16.2 °F 24.8 °F 80% 29.82 in 3.0 mi South 25.3 mph 31.1 mph N/A   Clear
4:15 PM 30.2 °F 17.4 °F 24.8 °F 80% 29.82 in 3.0 mi South 20.7 mph 28.8 mph N/A   Clear
4:35 PM 30.2 °F 18.1 °F 24.8 °F 80% 29.81 in 3.0 mi South 18.4 mph 24.2 mph N/A   Clear
4:55 PM 32.0 °F 20.1 °F 24.8 °F 75% 29.81 in 3.0 mi South 19.6 mph - N/A   Clear
5:15 PM 32.0 °F 20.1 °F 24.8 °F 75% 29.80 in 4.0 mi South 19.6 mph - N/A   Clear
5:35 PM 32.0 °F 21.2 °F 24.8 °F 75% 29.80 in 4.0 mi South 16.1 mph - N/A   Clear
5:55 PM 32.0 °F 20.5 °F 24.8 °F 75% 29.80 in 5.0 mi South 18.4 mph - N/A   Clear
6:15 PM 32.0 °F 20.1 °F 24.8 °F 75% 29.79 in 5.0 mi South 19.6 mph - N/A   Clear
6:35 PM 32.0 °F 20.5 °F 24.8 °F 75% 29.79 in 5.0 mi South 18.4 mph - N/A   Clear
6:55 PM 32.0 °F 19.8 °F 24.8 °F 75% 29.78 in 7.0 mi South 20.7 mph 25.3 mph N/A   Clear
7:15 PM 32.0 °F 20.1 °F 24.8 °F 75% 29.79 in 7.0 mi South 19.6 mph - N/A   Clear
7:35 PM 32.0 °F 19.8 °F 24.8 °F 75% 29.78 in 7.0 mi South 20.7 mph - N/A   Clear
7:55 PM 30.2 °F 17.4 °F 24.8 °F 80% 29.77 in 7.0 mi South 20.7 mph - N/A   Clear
8:15 PM 30.2 °F 17.8 °F 24.8 °F 80% 29.77 in 6.0 mi South 19.6 mph - N/A   Clear
8:35 PM 30.2 °F 17.8 °F 24.8 °F 80% 29.77 in 6.0 mi South 19.6 mph - N/A   Clear
8:55 PM 30.2 °F 17.4 °F 24.8 °F 80% 29.77 in 5.0 mi South 20.7 mph - N/A   Clear
9:15 PM 30.2 °F 16.8 °F 24.8 °F 80% 29.75 in 5.0 mi South 23.0 mph - N/A   Clear
9:35 PM 30.2 °F 16.8 °F 24.8 °F 80% 29.75 in 5.0 mi South 23.0 mph - N/A   Clear
9:55 PM 30.2 °F 16.5 °F 24.8 °F 80% 29.75 in 5.0 mi South 24.2 mph 28.8 mph N/A   Clear
10:15 PM 32.0 °F 19.2 °F 24.8 °F 75% 29.75 in 5.0 mi South 23.0 mph 29.9 mph N/A   Clear
10:35 PM 32.0 °F 18.9 °F 24.8 °F 75% 29.74 in 5.0 mi SSW 24.2 mph - N/A   Clear
10:55 PM 32.0 °F 18.9 °F 24.8 °F 75% 29.74 in 5.0 mi South 24.2 mph - N/A   Clear
11:15 PM 32.0 °F 18.9 °F 24.8 °F 75% 29.73 in 5.0 mi SSW 24.2 mph 29.9 mph N/A   Clear
11:35 PM 32.0 °F 19.2 °F 24.8 °F 75% 29.72 in 5.0 mi South 23.0 mph - N/A   Clear
11:55 PM 32.0 °F 19.2 °F 26.6 °F 80% 29.72 in 5.0 mi South 23.0 mph 28.8 mph N/A   Clear